• In France
  • List of Countries
  • For 7 days
  • Water Temperature
  • Satellite Maps
  • Weather Map
  • Weather Widgets
  • user-avatar
    Login

    Hourly Weather Medellín

    Today, 18 February, Sunday

    Time Temperature Precipitation Wind Pressure Humidity
    00:00 +13°C° 0.6 mm 0 mps 586 mmHg 93%
    01:00 +13°C° 0.6 mm 0 mps 586 mmHg 93%
    02:00 +13°C° 0.3 mm 0 mps 586 mmHg 93%
    03:00 +13°C° 0.3 mm 0 mps 585 mmHg 93%
    04:00 +12°C° 0.3 mm 0 mps 585 mmHg 93%
    05:00 +13°C° 0.3 mm 0 mps 585 mmHg 93%
    06:00 +13°C° 0.3 mm 0 mps 586 mmHg 93%
    07:00 +13°C° 0.3 mm 0 mps 586 mmHg 92%
    08:00 +14°C° 0.2 mm 0 mps 587 mmHg 87%
    09:00 +16°C° 0.2 mm 0 mps 587 mmHg 81%
    10:00 +17°C° 0.2 mm 0 mps 588 mmHg 76%
    11:00 +18°C° 0.5 mm 0 mps 588 mmHg 73%
    12:00 +19°C° 0.5 mm 0 mps 588 mmHg 70%
    13:00 +20°C° 0.5 mm 0 mps 588 mmHg 67%
    14:00 +22°C° 1.3 mm 1 mps 587 mmHg 70%
    15:00 +21°C° 1.3 mm 1 mps 586 mmHg 73%
    16:00 +20°C° 1.3 mm 1 mps 585 mmHg 76%
    17:00 +19°C° 1.4 mm 1 mps 585 mmHg 81%
    18:00 +18°C° 1.4 mm 1 mps 585 mmHg 86%
    19:00 +15°C° 1.4 mm 1 mps 584 mmHg 91%
    20:00 +15°C° 1.2 mm 1 mps 585 mmHg 92%
    21:00 +14°C° 1.2 mm 0 mps 585 mmHg 92%
    22:00 +13°C° 1.2 mm 0 mps 586 mmHg 93%
    23:00 +13°C° 0.1 mm 0 mps 586 mmHg 93%

    Tomorrow, 19 February, Monday

    Time Temperature Precipitation Wind Pressure Humidity
    00:00 +13°C° 0.1 mm 0 mps 585 mmHg 93%
    01:00 +12°C° 0.1 mm 0 mps 585 mmHg 94%
    02:00 +12°C° 0 mm 0 mps 585 mmHg 94%
    03:00 +12°C° 0 mm 0 mps 585 mmHg 94%
    04:00 +11°C° 0 mm 0 mps 584 mmHg 94%
    05:00 +12°C° 0 mm 0 mps 585 mmHg 94%
    06:00 +12°C° 0 mm 0 mps 585 mmHg 93%
    07:00 +12°C° 0 mm 0 mps 585 mmHg 92%
    08:00 +14°C° 0 mm 0 mps 586 mmHg 84%
    09:00 +16°C° 0 mm 0 mps 588 mmHg 75%
    10:00 +18°C° 0 mm 0 mps 589 mmHg 67%
    11:00 +19°C° 0.1 mm 0 mps 589 mmHg 63%
    12:00 +22°C° 0.1 mm 1 mps 588 mmHg 60%
    13:00 +23°C° 0.1 mm 1 mps 588 mmHg 56%
    14:00 +23°C° 0.1 mm 1 mps 587 mmHg 59%
    15:00 +22°C° 0.1 mm 1 mps 586 mmHg 61%
    16:00 +21°C° 0.1 mm 1 mps 586 mmHg 64%
    17:00 +20°C° 0.3 mm 1 mps 585 mmHg 72%
    18:00 +18°C° 0.3 mm 1 mps 585 mmHg 80%
    19:00 +15°C° 0.3 mm 1 mps 584 mmHg 88%
    20:00 +15°C° 0.2 mm 1 mps 585 mmHg 90%
    21:00 +15°C° 0.2 mm 1 mps 585 mmHg 91%
    22:00 +13°C° 0.2 mm 0 mps 586 mmHg 92%
    23:00 +13°C° 0.1 mm 0 mps 585 mmHg 92%

    Day after tomorrow, 20 February, Tuesday

    Time Temperature Precipitation Wind Pressure Humidity
    00:00 +13°C° 0.1 mm 0 mps 585 mmHg 93%
    01:00 +13°C° 0.1 mm 0 mps 585 mmHg 93%
    02:00 +12°C° 0.1 mm 0 mps 585 mmHg 93%
    03:00 +12°C° 0.1 mm 0 mps 584 mmHg 93%
    04:00 +12°C° 0.1 mm 0 mps 584 mmHg 93%
    05:00 +12°C° 0 mm 0 mps 585 mmHg 92%
    06:00 +12°C° 0 mm 0 mps 585 mmHg 92%
    07:00 +12°C° 0 mm 0 mps 585 mmHg 92%
    08:00 +14°C° 0 mm 0 mps 587 mmHg 81%
    09:00 +17°C° 0 mm 0 mps 588 mmHg 70%
    10:00 +20°C° 0 mm 0 mps 590 mmHg 59%
    11:00 +20°C° 0.1 mm 0 mps 589 mmHg 58%
    12:00 +20°C° 0.1 mm 0 mps 589 mmHg 56%
    13:00 +21°C° 0.1 mm 0 mps 588 mmHg 55%
    14:00 +23°C° 0.1 mm 1 mps 588 mmHg 56%
    15:00 +22°C° 0.1 mm 1 mps 587 mmHg 57%
    16:00 +22°C° 0.1 mm 1 mps 586 mmHg 58%
    17:00 +20°C° 0.3 mm 1 mps 586 mmHg 67%
    18:00 +18°C° 0.3 mm 1 mps 586 mmHg 76%
    19:00 +15°C° 0.3 mm 1 mps 585 mmHg 85%
    20:00 +15°C° 0.1 mm 1 mps 585 mmHg 86%
    21:00 +14°C° 0.1 mm 1 mps 586 mmHg 87%
    22:00 +14°C° 0.1 mm 1 mps 586 mmHg 89%
    23:00 +13°C° 0 mm 1 mps 586 mmHg 89%

    21 February, Wednesday

    Time Temperature Precipitation Wind Pressure Humidity
    00:00 +12°C° 0 mm 0 mps 585 mmHg 89%
    01:00 +11°C° 0 mm 0 mps 585 mmHg 90%
    02:00 +11°C° 0.1 mm 0 mps 585 mmHg 90%
    03:00 +11°C° 0.1 mm 0 mps 584 mmHg 90%
    04:00 +11°C° 0.1 mm 0 mps 584 mmHg 90%
    05:00 +11°C° 0.1 mm 0 mps 585 mmHg 90%
    06:00 +11°C° 0.1 mm 0 mps 585 mmHg 89%
    07:00 +11°C° 0.1 mm 0 mps 586 mmHg 89%
    08:00 +14°C° 0 mm 0 mps 587 mmHg 77%
    09:00 +17°C° 0 mm 0 mps 589 mmHg 66%
    10:00 +22°C° 0 mm 1 mps 590 mmHg 55%
    11:00 +22°C° 0.1 mm 1 mps 589 mmHg 55%
    12:00 +22°C° 0.1 mm 1 mps 589 mmHg 55%
    13:00 +23°C° 0.1 mm 1 mps 588 mmHg 55%
    14:00 +22°C° 0.2 mm 1 mps 588 mmHg 57%
    15:00 +22°C° 0.2 mm 1 mps 587 mmHg 58%
    16:00 +22°C° 0.2 mm 1 mps 586 mmHg 60%
    17:00 +20°C° 0.3 mm 1 mps 586 mmHg 68%
    18:00 +18°C° 0.3 mm 1 mps 586 mmHg 76%
    19:00 +15°C° 0.3 mm 1 mps 585 mmHg 84%
    20:00 +15°C° 0.3 mm 1 mps 586 mmHg 86%
    21:00 +15°C° 0.3 mm 1 mps 586 mmHg 87%
    22:00 +13°C° 0.3 mm 0 mps 586 mmHg 89%
    23:00 +13°C° 0.3 mm 0 mps 586 mmHg 89%

    22 February, Thursday

    Time Temperature Precipitation Wind Pressure Humidity
    00:00 +13°C° 0.3 mm 0 mps 586 mmHg 90%
    01:00 +13°C° 0.3 mm 0 mps 586 mmHg 90%
    02:00 +13°C° 0.7 mm 0 mps 586 mmHg 90%
    03:00 +13°C° 0.7 mm 0 mps 585 mmHg 91%
    04:00 +12°C° 0.7 mm 0 mps 585 mmHg 91%
    05:00 +12°C° 0.6 mm 0 mps 586 mmHg 91%
    06:00 +12°C° 0.6 mm 0 mps 586 mmHg 92%
    07:00 +12°C° 0.6 mm 0 mps 586 mmHg 92%
    08:00 +13°C° 0.2 mm 0 mps 587 mmHg 88%
    09:00 +14°C° 0.2 mm 0 mps 588 mmHg 85%
    10:00 +15°C° 0.2 mm 0 mps 588 mmHg 81%
    11:00 +16°C° 0.3 mm 0 mps 588 mmHg 76%
    12:00 +18°C° 0.3 mm 0 mps 588 mmHg 71%
    13:00 +21°C° 0.3 mm 1 mps 588 mmHg 65%
    14:00 +20°C° 0.7 mm 1 mps 587 mmHg 68%
    15:00 +18°C° 0.7 mm 0 mps 587 mmHg 70%
    16:00 +17°C° 0.7 mm 0 mps 586 mmHg 72%
    17:00 +16°C° 0.6 mm 0 mps 586 mmHg 77%
    18:00 +15°C° 0.6 mm 0 mps 586 mmHg 81%
    19:00 +14°C° 0.6 mm 1 mps 585 mmHg 86%
    20:00 +13°C° 0.2 mm 0 mps 586 mmHg 87%
    21:00 +13°C° 0.2 mm 0 mps 586 mmHg 88%
    22:00 +12°C° 0.2 mm 0 mps 586 mmHg 89%
    23:00 +12°C° 0.2 mm 0 mps 586 mmHg 89%

    23 February, Friday

    Time Temperature Precipitation Wind Pressure Humidity
    00:00 +12°C° 0.2 mm 0 mps 586 mmHg 90%
    01:00 +12°C° 0.2 mm 0 mps 585 mmHg 90%
    02:00 +11°C° 0.2 mm 0 mps 585 mmHg 91%
    03:00 +11°C° 0.2 mm 0 mps 585 mmHg 91%
    04:00 +11°C° 0.2 mm 0 mps 585 mmHg 91%
    05:00 +11°C° 0.2 mm 0 mps 585 mmHg 91%
    06:00 +11°C° 0.2 mm 0 mps 585 mmHg 91%
    07:00 +11°C° 0.2 mm 0 mps 586 mmHg 91%
    08:00 +14°C° 0 mm 0 mps 587 mmHg 82%
    09:00 +16°C° 0 mm 0 mps 588 mmHg 72%
    10:00 +18°C° 0 mm 0 mps 589 mmHg 63%
    11:00 +19°C° 0.2 mm 0 mps 589 mmHg 62%
    12:00 +19°C° 0.2 mm 0 mps 588 mmHg 61%
    13:00 +20°C° 0.2 mm 0 mps 588 mmHg 59%
    14:00 +21°C° 0.9 mm 1 mps 587 mmHg 64%
    15:00 +20°C° 0.9 mm 1 mps 586 mmHg 69%
    16:00 +19°C° 0.9 mm 1 mps 586 mmHg 74%
    17:00 +18°C° 0.7 mm 1 mps 585 mmHg 78%
    18:00 +16°C° 0.7 mm 1 mps 585 mmHg 83%
    19:00 +14°C° 0.7 mm 1 mps 585 mmHg 87%
    20:00 +14°C° 0.4 mm 1 mps 585 mmHg 88%
    21:00 +14°C° 0.4 mm 1 mps 585 mmHg 90%
    22:00 +12°C° 0.4 mm 0 mps 586 mmHg 91%
    23:00 +12°C° 0.2 mm 0 mps 585 mmHg 91%
    Show more